This is the latest recevied weather packets stored in our database for station/object F4GQK-13. If no packets are shown the sender has not sent any weather packets the latest 10 day(s).
| Time | Temp. | Humidity | Pressure | Rain* | Wind** | Luminosity | Snow |
|---|---|---|---|---|---|---|---|
| 1777463105 | 21.11° C | 51% | 1017.8 hPa | 0 mm | - | 667 W/m² | - |
| 1777462804 | 21.11° C | 51% | 1017.9 hPa | 0 mm | - | 695 W/m² | - |
| 1777462505 | 21.67° C | 50% | 1018 hPa | 0 mm | - | 702 W/m² | - |
| 1777462205 | 21.11° C | 52% | 1018 hPa | 0 mm | - | 762 W/m² | - |
| 1777461905 | 21.67° C | 50% | 1018 hPa | 0 mm | - | 722 W/m² | - |
| 1777461605 | 21.11° C | 52% | 1018.1 hPa | 0 mm | - | 659 W/m² | - |
| 1777461305 | 21.67° C | 50% | 1018.1 hPa | 0 mm | - | 723 W/m² | - |
| 1777461006 | 21.11° C | 50% | 1018 hPa | 0 mm | - | 678 W/m² | - |
| 1777460705 | 21.11° C | 50% | 1018.2 hPa | 0 mm | - | 644 W/m² | - |
| 1777460405 | 20.56° C | 51% | 1018.1 hPa | 0 mm | - | 686 W/m² | - |
| 1777460105 | 20.56° C | 51% | 1018.1 hPa | 0 mm | - | 677 W/m² | - |
| 1777459805 | 20.56° C | 51% | 1018.1 hPa | 0 mm | - | 641 W/m² | - |
| 1777459505 | 20.56° C | 53% | 1018 hPa | 0 mm | - | 689 W/m² | - |
| 1777459206 | 20.56° C | 53% | 1018.1 hPa | 0 mm | - | 689 W/m² | - |
| 1777458905 | 20° C | 54% | 1018.2 hPa | 0 mm | - | 646 W/m² | - |
| 1777458604 | 20° C | 55% | 1018.2 hPa | 0 mm | - | 662 W/m² | - |
| 1777458304 | 20.56° C | 55% | 1018.2 hPa | 0 mm | - | 621 W/m² | - |
| 1777458005 | 20° C | 56% | 1018 hPa | 0 mm | - | 631 W/m² | - |
| 1777457704 | 19.44° C | 55% | 1018.1 hPa | 0 mm | - | 596 W/m² | - |
| 1777457406 | 19.44° C | 55% | 1018.2 hPa | 0 mm | - | 537 W/m² | - |
| 1777457105 | 18.89° C | 54% | 1018 hPa | 0 mm | - | 569 W/m² | - |
| 1777456805 | 18.89° C | 54% | 1018.3 hPa | 0 mm | - | 487 W/m² | - |
| 1777456506 | 18.89° C | 55% | 1018.4 hPa | 0 mm | - | 546 W/m² | - |
| 1777456204 | 18.89° C | 56% | 1018.3 hPa | 0 mm | - | 626 W/m² | - |
| 1777455906 | 18.33° C | 56% | 1018.2 hPa | 0 mm | - | 524 W/m² | - |
* Rain latest hour (hover to see other rain measurements)
** Current wind speed in m/s (hover to see current wind gust speed)